Tracking 30157 objects as of 12-Feb-2025
HD Live streaming from Space Station
objects crossing your sky now

STARLINK-32666

Track STARLINK-32666 now!
10-day predictions
STARLINK-32666 is classified as:


NORAD ID: 62214
Int'l Code: 2024-229Y
Perigee: 486.8 km
Apogee: 488.6 km
Inclination: 43.0 °
Period: 94.2 minutes
Semi major axis: 6858 km
RCS: Unknown
Launch date: December 4, 2024
Source: United States (US)
Launch site: AIR FORCE EASTERN TEST RANGE (AFETR)
Your satellite tracking list
Your tracking list is empty




NASA's NSSDC Master Catalog

Two Line Element Set (TLE):
1 62214U 24229Y   25042.91667824 -.00986750  00000-0 -37897-1 0  9992
2 62214  43.0002 317.9721 0001274 250.4501  97.0914 15.28408850  5834
Source of the keplerian elements: AFSPC